Location: Bittelbronn
(48.4454°N, 8.5870°E)
Time: 13:26:18
(UTC+00:00)

SJ 16-02 - Pass Details

Date: 20 April 2025
Orbit: 587 x 597 km, 75.0° (Epoch: 15 May)

Event Time Altitude Azimuth Distance (km) Brightness Sun altitude
Rises 19:53:53 0° 339° (NNW) 2,848 5.8 -13.9°
Reaches altitude 10° 19:56:07 10° 341° (NNW) 1,943 4.8 -14.2°
Maximum altitude 20:00:28 76° 68° (ENE) 621 1.2 -14.8°
Enters shadow 20:02:59 24° 151° (SSE) 1,240 2.4 -15.1°
